Hourly Data Report for October 13, 2015

All times are specified in Local Standard Time (LST). Add 1 hour to adjust for Daylight Saving Time where and when it is observed.

ARVIAT A
NUNAVUT

61°05'38.000" N
94°04'18.000" W
10.40 m
2300427
71174
YEK

Download Data

Hourly Data (October 2015)
Hourly Data Report for October 13, 2015
Temp Definition
°C
Dew Point Temp Definition
°C
Rel Hum Definition
%
Wind Dir Definition
10's deg

Wind Spd Definition
km/h
Visibility Definition
km
Stn Press Definition
kPa
Hmdx Definition


Wind Chill Definition


Weather Definition


TIME
00:00 Legend Double Dagger -7.2 -8.4 91 35 28 16.1 100.80   -16 LegendNANA
01:00 Legend Double Dagger -7.3 -8.6 91 34 22 16.1 100.80   -15 LegendNANA
02:00 Legend Double Dagger -6.5 -8.2 88 35 24 16.1 100.77   -14 LegendNANA
03:00 Legend Double Dagger -5.8 -7.8 86 36 15 16.1 100.75   -12 LegendNANA
04:00 Legend Double Dagger -5.6 -8.2 82 35 15 16.1 100.71   -11 LegendNANA
05:00 Legend Double Dagger -5.4 -8.0 82 35 17 16.1 100.69   -11 LegendNANA
06:00 Legend Double Dagger -6.7 -8.1 90 36 26 16.1 100.72   -15 LegendNANA
07:00 Legend Double Dagger -7.7 -8.6 93 35 22 16.1 100.76   -15 LegendNANA
08:00 Legend Double Dagger -8.4 -9.1 95 35 22 16.1 100.79   -16 LegendNANA
09:00 Legend Double Dagger -8.4 -8.9 96 34 22 16.1 100.76   -16 LegendNANA
10:00 Legend Double Dagger -7.6 -8.6 93 35 13 16.1 100.77   -13 LegendNANA
11:00 Legend Double Dagger -6.9 -8.4 89 35 13 16.1 100.76   -12 LegendNANA
12:00 Legend Double Dagger -6.3 -8.1 87 36 15 16.1 100.76   -12 LegendNANA
13:00 Legend Double Dagger -6.3 -8.0 88 36 17 16.1 100.75   -13 LegendNANA
14:00 Legend Double Dagger -6.3 -8.1 87 3 17 16.1 100.74   -13 LegendNANA
15:00 Legend Double Dagger -6.6 -8.1 89 34 9 16.1 100.73   -11 LegendNANA
16:00 Legend Double Dagger -6.7 -8.0 91 34 17 16.1 100.76   -13 LegendNANA
17:00 Legend Double Dagger -6.2 -7.3 92 35 11 16.1 100.73   -11 LegendNANA
18:00 Legend Double Dagger -5.9 -7.1 91 35 11 16.1 100.71   -11 LegendNANA
19:00 Legend Double Dagger -5.5 -6.9 90 34 17 16.1 100.72   -12 Snow
20:00 Legend Double Dagger -3.9 -6.5 82 6 13 16.1 100.69   -9 Snow
21:00 Legend Double Dagger -3.7 -6.3 82 8 11 16.1 100.68   -8 LegendNANA
22:00 Legend Double Dagger -3.4 -6.0 82 9 11 16.1 100.64   -8 LegendNANA
23:00 Legend Double Dagger -3.1 -5.8 82 8 11 16.1 100.61   -7 LegendNANA

Notes on Data Quality.

Legend

  • E = Estimated
  • M = Missing
  • NA = Not Available
  • ‡ = Partner data that is not subject to review by the National Climate Archives
Date modified: